Regional Weather Roundup
Issued by NWS

Home | Current Version | Previous Version | Graphics & Text | Print | Product List | Glossary On
Versions: 1 2 3 4 5 6 7 8 9 10 11 12 13 14 15 16 17 18 19 20 21 22 23 24 25 26 27 28 29 30 31 32 33 34 35 36 37 38 39 40 41 42 43 44 45 46 47 48 49 50
000
ASUS43 KTOP 281459
RWRKS

WEATHER ROUNDUP FOR KANSAS
NATIONAL WEATHER SERVICE GOODLAND KS
1000 AM CDT TUE APR 28 2015

NOTE:  "FAIR" INDICATES FEW OR NO CLOUDS BELOW 12,000 FEET WITH NO
SIGNIFICANT WEATHER AND/OR OBSTRUCTIONS TO VISIBILITY.

KSZ001>006-013>018-027>032-041>047-281600-
NORTHWEST KANSAS

CITY           SKY/WX    TMP DP  RH WIND       PRES   REMARKS
GOODLAND       SUNNY     50  41  71 N14       30.34R
HAYS           MOSUNNY   55  37  50 N14       30.26R
HILL CITY      MOSUNNY   53  43  68 N12       30.29R
RUSSELL        MOSUNNY   56  38  50 N10       30.24R
$$

KSZ061>065-074>080-084>089-281600-
SOUTHWEST KANSAS

CITY           SKY/WX    TMP DP  RH WIND       PRES   REMARKS
DODGE CITY     MOSUNNY   56  35  45 N16       30.26R
ELKHART          N/A     52  34  50 N13         N/A
GARDEN CITY    SUNNY     55  34  45 NE15G23   30.26S
GREAT BEND     MOSUNNY   55  37  50 N14       30.24R
LIBERAL        SUNNY     54  41  62 N15       30.27S
$$

KSZ066>073-081>083-090>101-281600-
SOUTHEAST KANSAS

CITY           SKY/WX    TMP DP  RH WIND       PRES   REMARKS
CHANUTE        PTSUNNY   60  39  45 E6        30.16S
COFFEYVILLE    CLOUDY    56  42  59 NE5       30.16R
HUTCHINSON     MOSUNNY   58  39  49 N8        30.21S
NEWTON         SUNNY     57  37  47 E6        30.22S
PARSONS        CLOUDY    57  43  59 NE5       30.17R
WICHITA INTL   PTSUNNY   56  41  57 N7        30.19S
WICHITA JABRA  PTSUNNY   59  41  51 NE7       30.19S
WINFIELD       CLOUDY    56  43  61 N8        30.17S
$$

KSZ007>012-019>026-033>040-048>060-102>105-281600-
NORTHEAST KANSAS

CITY           SKY/WX    TMP DP  RH WIND       PRES   REMARKS
CONCORDIA      SUNNY     57  39  51 NW8       30.23S
EMPORIA        SUNNY     58  41  53 CALM      30.19S
LAWRENCE       MOSUNNY   59  44  57 W3        30.19S
MANHATTAN      PTSUNNY   56  43  61 CALM      30.21S
OLATHE IND     MOSUNNY   60  41  49 VRB5      30.18S
OLATHE EXE     MOSUNNY   62  39  42 N6        30.17S
SALINA         MOSUNNY   55  41  59 N6        30.23R
TOPEKA BILLARD MOSUNNY   57  42  57 CALM      30.20S
TOPEKA FORBES  MOSUNNY   59  43  55 CALM      30.19S
$$


USA.gov is the U.S. government's official web portal to all federal, state and local government web resources and services.